Location: Luxembourg
(49.6117°N, 6.1300°E)
Time: 07:06:45
(UTC+01:00)

Envisat - Pass Details

Date: 27 January 2019
Orbit: 764 x 766 km, 98.2° (Epoch: 20 February)

Event Time Altitude Azimuth Distance (km) Brightness Sun altitude
Rises 19:42:06 0° 182° (S) 3,220 6.3 -22.5°
Reaches altitude 10° 19:44:29 10° 188° (S) 2,299 5.6 -22.9°
Maximum altitude 19:49:21 46° 262° (W) 1,025 4.0 -23.7°
Drops below altitude 10° 19:54:15 10° 335° (NNW) 2,315 5.8 -24.5°
Sets 19:56:40 0° 342° (NNW) 3,245 6.5 -24.9°
